QPF
0.06 0.10 0.09 0.11 0.10 0.09 0.07 0.06 0.07 0.09 0.11 0.10 0.10 0.11 0.10 0.07 0.08 0.09 0.10 0.11 0.12 0.13 0.14 0.15 0.14 0.13 0.13 0.11 0.10 0.16 0.14 0.09 0.06 0.07 0.09 0.09 0.07 0.06 0.06 0.06 0.06 0.05 0.06
0.05 0.06 0.07 0.08 0.08 0.08 0.07 0.06 0.06 0.08 0.12 0.13 0.14 0.13 0.10 0.08 0.07 0.07 0.08 0.09 0.09 0.10 0.11 0.11 0.10 0.10 0.10 0.10 0.08 0.07 0.07 0.08 0.07 0.06 0.08 0.10 0.09 0.07 0.08 0.08 0.08 0.08 0.07
0.03 0.05 0.05 0.05 0.05 0.05 0.05 0.05 0.06 0.08 0.11 0.13 0.13 0.09 0.07 0.05 0.04 0.05 0.06 0.07 0.07 0.07 0.07 0.07 0.08 0.07 0.08 0.10 0.09 0.07 0.05 0.05 0.05 0.05 0.07 0.11 0.13 0.10 0.09 0.11 0.12 0.10 0.08
0.03 0.04 0.05 0.05 0.05 0.04 0.04 0.05 0.05 0.07 0.10 0.11 0.10 0.07 0.05 0.04 0.03 0.03 0.04 0.05 0.05 0.05 0.05 0.04 0.04 0.05 0.06 0.08 0.08 0.08 0.06 0.06 0.05 0.06 0.06 0.09 0.17 0.21 0.16 0.12 0.11 0.10 0.10
0.05 0.06 0.06 0.06 0.05 0.05 0.05 0.05 0.06 0.06 0.06 0.08 0.09 0.08 0.06 0.05 0.03 0.02 0.03 0.02 0.03 0.03 0.03 0.03 0.03 0.04 0.04 0.04 0.06 0.09 0.09 0.08 0.06 0.05 0.05 0.05 0.06 0.11 0.16 0.19 0.17 0.12 0.11
0.05 0.05 0.05 0.06 0.07 0.07 0.06 0.05 0.04 0.05 0.06 0.07 0.07 0.07 0.05 0.04 0.03 0.03 0.02 0.03 0.04 0.02 0.02 0.03 0.04 0.02 0.02 0.02 0.04 0.07 0.11 0.09 0.06 0.05 0.05 0.05 0.05 0.06 0.08 0.13 0.17 0.17 0.14
0.05 0.06 0.05 0.07 0.08 0.07 0.06 0.06 0.06 0.05 0.06 0.07 0.07 0.06 0.05 0.04 0.04 0.03 0.03 0.03 0.04 0.02 0.02 0.03 0.05 0.05 0.04 0.02 0.02 0.04 0.08 0.09 0.07 0.06 0.06 0.08 0.09 0.10 0.11 0.10 0.13 0.15 0.13
0.06 0.06 0.08 0.08 0.09 0.07 0.06 0.06 0.07 0.06 0.05 0.05 0.06 0.08 0.07 0.05 0.03 0.02 0.03 0.03 0.03 0.02 0.02 0.03 0.05 0.08 0.06 0.04 0.03 0.02 0.04 0.07 0.08 0.07 0.06 0.06 0.08 0.07 0.06 0.07 0.12 0.14 0.15
0.06 0.06 0.07 0.07 0.06 0.06 0.05 0.06 0.06 0.05 0.06 0.06 0.07 0.07 0.08 0.07 0.06 0.04 0.02 0.03 0.03 0.03 0.02 0.03 0.05 0.08 0.06 0.05 0.05 0.04 0.04 0.04 0.06 0.07 0.05 0.06 0.06 0.06 0.06 0.07 0.08 0.09 0.14
0.05 0.05 0.05 0.06 0.05 0.04 0.05 0.04 0.04 0.05 0.08 0.09 0.07 0.06 0.06 0.05 0.07 0.07 0.03 0.02 0.03 0.03 0.03 0.03 0.05 0.06 0.05 0.07 0.08 0.05 0.03 0.02 0.03 0.05 0.05 0.06 0.08 0.08 0.07 0.08 0.07 0.09 0.13
0.05 0.04 0.04 0.05 0.06 0.05 0.05 0.04 0.04 0.05 0.06 0.07 0.08 0.06 0.05 0.04 0.06 0.06 0.06 0.06 0.04 0.03 0.04 0.04 0.04 0.05 0.05 0.06 0.06 0.05 0.04 0.05 0.03 0.03 0.05 0.06 0.06 0.06 0.08 0.08 0.08 0.10 0.12
0.05 0.04 0.04 0.05 0.06 0.07 0.06 0.05 0.05 0.05 0.06 0.06 0.07 0.05 0.06 0.06 0.06 0.06 0.05 0.06 0.06 0.05 0.05 0.04 0.03 0.03 0.02 0.02 0.02 0.02 0.02 0.06 0.09 0.05 0.03 0.04 0.06 0.08 0.07 0.06 0.07 0.07 0.09
0.05 0.05 0.04 0.05 0.05 0.07 0.06 0.05 0.06 0.06 0.07 0.07 0.07 0.06 0.06 0.06 0.06 0.05 0.06 0.06 0.04 0.04 0.04 0.03 0.03 0.02 0.02 0.02 0.02 0.02 0.02 0.07 0.11 0.09 0.05 0.05 0.05 0.05 0.05 0.05 0.06 0.07 0.06
0.05 0.04 0.03 0.04 0.05 0.06 0.05 0.05 0.05 0.05 0.06 0.08 0.06 0.06 0.05 0.05 0.05 0.05 0.06 0.06 0.04 0.03 0.04 0.04 0.02 0.01 0.02 0.03 0.03 0.02 0.02 0.07 0.10 0.14 0.14 0.10 0.06 0.05 0.05 0.03 0.04 0.04 0.05
0.04 0.04 0.03 0.03 0.05 0.07 0.06 0.05 0.06 0.04 0.05 0.07 0.07 0.07 0.05 0.05 0.03 0.03 0.03 0.04 0.04 0.03 0.04 0.05 0.04 0.03 0.02 0.03 0.03 0.03 0.03 0.05 0.08 0.12 0.16 0.14 0.10 0.08 0.06 0.04 0.04 0.05 0.05
0.04 0.04 0.04 0.04 0.04 0.05 0.05 0.06 0.06 0.05 0.06 0.05 0.06 0.06 0.06 0.05 0.04 0.04 0.04 0.04 0.03 0.03 0.04 0.04 0.03 0.02 0.02 0.01 0.02 0.03 0.03 0.04 0.05 0.07 0.09 0.10 0.11 0.09 0.06 0.04 0.04 0.05 0.05
0.05 0.05 0.04 0.04 0.04 0.03 0.04 0.04 0.05 0.06 0.06 0.05 0.05 0.06 0.05 0.04 0.04 0.04 0.04 0.03 0.02 0.02 0.03 0.03 0.02 0.02 0.02 0.02 0.02 0.02 0.02 0.02 0.02 0.03 0.04 0.06 0.08 0.07 0.05 0.04 0.04 0.04 0.04
0.05 0.04 0.04 0.04 0.04 0.04 0.04 0.04 0.04 0.06 0.06 0.06 0.05 0.05 0.05 0.04 0.03 0.03 0.02 0.02 0.02 0.03 0.03 0.03 0.02 0.02 0.02 0.01 0.01 0.02 0.02 0.02 0.02 0.02 0.02 0.02 0.03 0.03 0.03 0.03 0.03 0.03 0.02
0.04 0.03 0.04 0.05 0.05 0.06 0.05 0.05 0.06 0.05 0.04 0.04 0.04 0.05 0.05 0.05 0.04 0.03 0.02 0.02 0.02 0.02 0.03 0.03 0.03 0.02 0.02 0.01 0.01 0.02 0.02 0.02 0.01 0.01 0.01 0.01 0.01 0.01 0.01 0.01 0.01 0.01 0.01
0.04 0.04 0.05 0.05 0.05 0.06 0.06 0.06 0.07 0.06 0.04 0.04 0.05 0.05 0.06 0.06 0.05 0.04 0.03 0.02 0.03 0.03 0.02 0.02 0.02 0.03 0.02 0.01 0.02 0.02 0.02 0.02 0.01 0.01 0.01 0.01 0.01 0.01 0.01 0.00 0.00 0.00 0.00
0.02 0.03 0.04 0.04 0.03 0.04 0.05 0.07 0.08 0.09 0.09 0.09 0.09 0.08 0.07 0.05 0.04 0.03 0.03 0.03 0.04 0.04 0.03 0.02 0.02 0.02 0.02 0.02 0.02 0.01 0.02 0.02 0.02 0.01 0.01 0.01 0.01 0.01 0.00 0.01 0.00 0.00 0.00
0.02 0.03 0.03 0.03 0.03 0.02 0.03 0.05 0.08 0.10 0.10 0.10 0.11 0.09 0.07 0.05 0.04 0.03 0.03 0.03 0.04 0.04 0.03 0.02 0.02 0.02 0.02 0.02 0.02 0.02 0.02 0.02 0.03 0.02 0.02 0.02 0.01 0.01 0.01 0.01 0.01 0.00 0.00
0.03 0.02 0.02 0.02 0.03 0.02 0.02 0.01 0.02 0.04 0.06 0.07 0.07 0.05 0.03 0.03 0.03 0.03 0.03 0.03 0.02 0.02 0.02 0.02 0.02 0.02 0.03 0.03 0.02 0.02 0.02 0.03 0.03 0.03 0.02 0.03 0.02 0.01 0.01 0.01 0.01 0.01 0.01
0.04 0.03 0.02 0.01 0.02 0.03 0.03 0.02 0.01 0.01 0.02 0.02 0.03 0.02 0.02 0.02 0.02 0.03 0.03 0.03 0.03 0.03 0.02 0.02 0.02 0.03 0.04 0.04 0.03 0.03 0.03 0.03 0.03 0.02 0.01 0.02 0.02 0.02 0.01 0.01 0.01 0.01 0.01
0.04 0.04 0.03 0.02 0.03 0.04 0.04 0.03 0.02 0.02 0.02 0.02 0.02 0.03 0.03 0.02 0.03 0.03 0.03 0.04 0.05 0.05 0.04 0.04 0.04 0.03 0.03 0.04 0.04 0.04 0.04 0.03 0.02 0.02 0.02 0.02 0.02 0.02 0.02 0.02 0.02 0.01 0.01
0.02 0.03 0.04 0.05 0.06 0.05 0.04 0.04 0.04 0.04 0.04 0.05 0.06 0.06 0.07 0.06 0.04 0.04 0.04 0.05 0.06 0.07 0.07 0.06 0.06 0.06 0.04 0.03 0.03 0.04 0.04 0.04 0.02 0.03 0.03 0.03 0.03 0.03 0.03 0.02 0.01 0.01 0.01
MSLP
1012.82 1012.96 1013.09 1013.22 1013.35 1013.49 1013.61 1013.71 1013.76 1013.75 1013.67 1013.54 1013.37 1013.21 1013.09 1013.04 1013.07 1013.21 1013.42 1013.69 1013.98 1014.28 1014.56 1014.82 1015.07 1015.32 1015.58 1015.88 1016.21 1016.57 1016.94 1017.31 1017.66 1017.97 1018.26 1018.52 1018.76 1019.00 1019.25 1019.50 1019.75 1019.98 1020.19
1012.83 1012.90 1012.97 1013.07 1013.18 1013.32 1013.47 1013.61 1013.71 1013.75 1013.72 1013.63 1013.48 1013.33 1013.19 1013.10 1013.10 1013.17 1013.33 1013.55 1013.79 1014.05 1014.29 1014.52 1014.75 1014.98 1015.24 1015.53 1015.88 1016.26 1016.66 1017.08 1017.48 1017.85 1018.19 1018.50 1018.77 1019.03 1019.27 1019.50 1019.73 1019.94 1020.13
1013.05 1013.03 1013.02 1013.04 1013.11 1013.22 1013.38 1013.55 1013.69 1013.79 1013.82 1013.77 1013.65 1013.50 1013.35 1013.23 1013.17 1013.18 1013.27 1013.42 1013.61 1013.82 1014.02 1014.21 1014.40 1014.61 1014.84 1015.12 1015.45 1015.83 1016.26 1016.71 1017.16 1017.60 1018.00 1018.36 1018.67 1018.96 1019.21 1019.44 1019.66 1019.86 1020.03
1013.41 1013.29 1013.18 1013.10 1013.09 1013.16 1013.30 1013.48 1013.66 1013.81 1013.89 1013.88 1013.80 1013.66 1013.50 1013.35 1013.24 1013.20 1013.23 1013.32 1013.45 1013.60 1013.76 1013.91 1014.07 1014.23 1014.42 1014.66 1014.96 1015.32 1015.75 1016.21 1016.69 1017.17 1017.63 1018.05 1018.42 1018.75 1019.04 1019.29 1019.51 1019.71 1019.88
1013.80 1013.59 1013.37 1013.19 1013.09 1013.09 1013.19 1013.36 1013.55 1013.74 1013.86 1013.91 1013.86 1013.75 1013.59 1013.42 1013.28 1013.19 1013.18 1013.22 1013.30 1013.42 1013.54 1013.66 1013.77 1013.89 1014.03 1014.21 1014.45 1014.77 1015.16 1015.61 1016.10 1016.60 1017.10 1017.57 1018.00 1018.39 1018.72 1019.01 1019.26 1019.47 1019.66
1014.13 1013.83 1013.52 1013.24 1013.05 1012.97 1013.02 1013.16 1013.35 1013.55 1013.71 1013.80 1013.79 1013.71 1013.57 1013.41 1013.26 1013.15 1013.11 1013.13 1013.19 1013.28 1013.38 1013.47 1013.55 1013.62 1013.70 1013.82 1013.99 1014.23 1014.56 1014.96 1015.43 1015.94 1016.46 1016.97 1017.45 1017.88 1018.27 1018.60 1018.89 1019.14 1019.36
1014.33 1013.97 1013.58 1013.23 1012.95 1012.80 1012.79 1012.89 1013.06 1013.26 1013.44 1013.56 1013.60 1013.55 1013.44 1013.30 1013.17 1013.07 1013.02 1013.04 1013.10 1013.18 1013.28 1013.35 1013.40 1013.44 1013.46 1013.51 1013.60 1013.76 1014.01 1014.35 1014.77 1015.25 1015.76 1016.29 1016.81 1017.29 1017.73 1018.11 1018.45 1018.74 1018.99
1014.37 1013.99 1013.56 1013.15 1012.82 1012.61 1012.53 1012.58 1012.72 1012.91 1013.09 1013.23 1013.30 1013.29 1013.22 1013.12 1013.01 1012.93 1012.91 1012.94 1013.01 1013.10 1013.20 1013.27 1013.31 1013.32 1013.30 1013.29 1013.31 1013.39 1013.55 1013.81 1014.17 1014.60 1015.10 1015.62 1016.15 1016.66 1017.14 1017.57 1017.95 1018.28 1018.56
1014.28 1013.91 1013.47 1013.04 1012.68 1012.42 1012.29 1012.28 1012.38 1012.54 1012.71 1012.85 1012.94 1012.96 1012.93 1012.87 1012.80 1012.75 1012.75 1012.80 1012.89 1012.99 1013.10 1013.18 1013.21 1013.21 1013.16 1013.11 1013.08 1013.10 1013.19 1013.38 1013.67 1014.06 1014.51 1015.02 1015.55 1016.07 1016.57 1017.02 1017.43 1017.79 1018.11
1014.12 1013.77 1013.35 1012.93 1012.55 1012.26 1012.08 1012.02 1012.06 1012.18 1012.32 1012.45 1012.55 1012.59 1012.60 1012.57 1012.53 1012.52 1012.54 1012.60 1012.69 1012.81 1012.92 1013.00 1013.04 1013.04 1012.99 1012.92 1012.86 1012.84 1012.89 1013.03 1013.28 1013.62 1014.03 1014.51 1015.02 1015.54 1016.04 1016.51 1016.93 1017.31 1017.64
1013.94 1013.62 1013.23 1012.83 1012.45 1012.14 1011.92 1011.80 1011.78 1011.83 1011.93 1012.05 1012.14 1012.20 1012.23 1012.23 1012.23 1012.23 1012.26 1012.32 1012.42 1012.52 1012.63 1012.71 1012.75 1012.76 1012.72 1012.66 1012.61 1012.58 1012.62 1012.74 1012.96 1013.27 1013.65 1014.11 1014.60 1015.10 1015.59 1016.05 1016.47 1016.84 1017.17
1013.77 1013.48 1013.13 1012.75 1012.37 1012.03 1011.77 1011.59 1011.50 1011.49 1011.54 1011.63 1011.71 1011.78 1011.83 1011.86 1011.88 1011.90 1011.93 1011.98 1012.05 1012.14 1012.22 1012.29 1012.34 1012.35 1012.34 1012.31 1012.28 1012.29 1012.34 1012.47 1012.68 1012.98 1013.35 1013.78 1014.25 1014.73 1015.20 1015.64 1016.04 1016.40 1016.71
1013.63 1013.36 1013.03 1012.66 1012.28 1011.91 1011.59 1011.35 1011.19 1011.12 1011.12 1011.17 1011.24 1011.33 1011.40 1011.45 1011.49 1011.52 1011.55 1011.59 1011.63 1011.68 1011.74 1011.80 1011.84 1011.87 1011.88 1011.89 1011.91 1011.96 1012.05 1012.20 1012.43 1012.73 1013.09 1013.51 1013.95 1014.41 1014.86 1015.28 1015.66 1015.98 1016.26
1013.52 1013.25 1012.92 1012.55 1012.14 1011.73 1011.36 1011.04 1010.82 1010.68 1010.63 1010.66 1010.73 1010.83 1010.93 1011.02 1011.09 1011.13 1011.16 1011.19 1011.21 1011.23 1011.26 1011.29 1011.33 1011.37 1011.41 1011.47 1011.53 1011.63 1011.76 1011.95 1012.19 1012.50 1012.86 1013.26 1013.69 1014.12 1014.55 1014.94 1015.29 1015.58 1015.82
1013.41 1013.13 1012.79 1012.39 1011.94 1011.49 1011.05 1010.67 1010.37 1010.18 1010.09 1010.09 1010.17 1010.29 1010.43 1010.56 1010.67 1010.75 1010.79 1010.82 1010.83 1010.83 1010.84 1010.87 1010.91 1010.96 1011.03 1011.12 1011.23 1011.36 1011.53 1011.74 1011.99 1012.29 1012.64 1013.02 1013.42 1013.83 1014.23 1014.60 1014.92 1015.18 1015.39
1013.29 1012.99 1012.62 1012.18 1011.70 1011.19 1010.70 1010.25 1009.89 1009.65 1009.52 1009.51 1009.59 1009.74 1009.92 1010.10 1010.26 1010.38 1010.46 1010.51 1010.53 1010.54 1010.55 1010.58 1010.63 1010.70 1010.80 1010.91 1011.05 1011.20 1011.38 1011.59 1011.83 1012.10 1012.41 1012.76 1013.13 1013.51 1013.88 1014.23 1014.53 1014.77 1014.95
1013.16 1012.82 1012.43 1011.96 1011.44 1010.89 1010.34 1009.84 1009.43 1009.14 1008.99 1008.96 1009.05 1009.21 1009.43 1009.65 1009.86 1010.04 1010.16 1010.25 1010.31 1010.35 1010.39 1010.45 1010.52 1010.62 1010.74 1010.88 1011.03 1011.18 1011.34 1011.52 1011.72 1011.94 1012.19 1012.48 1012.79 1013.13 1013.47 1013.80 1014.09 1014.32 1014.49
1013.01 1012.66 1012.24 1011.76 1011.21 1010.63 1010.05 1009.51 1009.06 1008.73 1008.54 1008.49 1008.57 1008.74 1008.98 1009.23 1009.48 1009.70 1009.88 1010.02 1010.13 1010.22 1010.32 1010.42 1010.54 1010.68 1010.83 1010.98 1011.13 1011.27 1011.40 1011.52 1011.64 1011.78 1011.95 1012.16 1012.41 1012.69 1013.00 1013.30 1013.59 1013.82 1013.99
1012.84 1012.49 1012.08 1011.59 1011.04 1010.45 1009.85 1009.29 1008.82 1008.46 1008.24 1008.16 1008.21 1008.36 1008.58 1008.84 1009.11 1009.36 1009.58 1009.77 1009.94 1010.09 1010.25 1010.42 1010.60 1010.79 1010.97 1011.14 1011.29 1011.41 1011.48 1011.54 1011.57 1011.62 1011.69 1011.81 1011.97 1012.19 1012.46 1012.74 1013.01 1013.25 1013.44
1012.66 1012.32 1011.93 1011.46 1010.93 1010.36 1009.77 1009.22 1008.73 1008.34 1008.09 1007.97 1007.97 1008.08 1008.26 1008.50 1008.75 1009.00 1009.24 1009.47 1009.68 1009.90 1010.12 1010.35 1010.60 1010.84 1011.07 1011.27 1011.42 1011.51 1011.55 1011.53 1011.48 1011.43 1011.40 1011.42 1011.50 1011.65 1011.86 1012.12 1012.38 1012.63 1012.83
1012.43 1012.12 1011.76 1011.34 1010.85 1010.32 1009.77 1009.24 1008.76 1008.37 1008.08 1007.91 1007.86 1007.91 1008.03 1008.21 1008.42 1008.64 1008.87 1009.11 1009.35 1009.61 1009.88 1010.17 1010.48 1010.78 1011.05 1011.28 1011.44 1011.52 1011.53 1011.46 1011.35 1011.22 1011.10 1011.03 1011.03 1011.11 1011.27 1011.48 1011.73 1011.97 1012.19
1012.13 1011.86 1011.54 1011.17 1010.75 1010.28 1009.79 1009.31 1008.86 1008.47 1008.17 1007.97 1007.86 1007.84 1007.89 1008.00 1008.14 1008.32 1008.51 1008.73 1008.97 1009.24 1009.55 1009.88 1010.22 1010.56 1010.88 1011.14 1011.32 1011.41 1011.40 1011.32 1011.16 1010.98 1010.81 1010.67 1010.60 1010.62 1010.71 1010.88 1011.10 1011.32 1011.53
1011.73 1011.49 1011.22 1010.91 1010.56 1010.17 1009.75 1009.34 1008.94 1008.59 1008.30 1008.08 1007.93 1007.86 1007.85 1007.89 1007.97 1008.09 1008.23 1008.41 1008.63 1008.88 1009.18 1009.51 1009.87 1010.23 1010.56 1010.85 1011.05 1011.17 1011.18 1011.10 1010.95 1010.76 1010.56 1010.38 1010.27 1010.22 1010.26 1010.37 1010.54 1010.72 1010.90
1011.23 1011.00 1010.77 1010.51 1010.23 1009.92 1009.59 1009.26 1008.94 1008.65 1008.40 1008.20 1008.06 1007.97 1007.92 1007.92 1007.95 1008.01 1008.11 1008.23 1008.40 1008.61 1008.87 1009.17 1009.50 1009.85 1010.18 1010.47 1010.70 1010.84 1010.89 1010.85 1010.73 1010.56 1010.37 1010.19 1010.05 1009.97 1009.95 1010.00 1010.09 1010.21 1010.33
1010.64 1010.41 1010.19 1009.98 1009.76 1009.53 1009.29 1009.05 1008.82 1008.61 1008.43 1008.29 1008.18 1008.12 1008.09 1008.08 1008.09 1008.13 1008.18 1008.26 1008.37 1008.51 1008.70 1008.94 1009.21 1009.50 1009.80 1010.07 1010.31 1010.48 1010.57 1010.59 1010.53 1010.41 1010.26 1010.11 1009.97 1009.86 1009.79 1009.76 1009.77 1009.80 1009.83
1010.02 1009.77 1009.56 1009.36 1009.19 1009.02 1008.86 1008.71 1008.57 1008.45 1008.37 1008.31 1008.28 1008.28 1008.30 1008.33 1008.36 1008.40 1008.44 1008.48 1008.53 1008.61 1008.71 1008.85 1009.03 1009.24 1009.47 1009.71 1009.92 1010.11 1010.24 1010.31 1010.33 1010.28 1010.20 1010.08 1009.96 1009.83 1009.72 1009.63 1009.55 1009.48 1009.41
Thickness
5764 5762 5759 5757 5757 5756 5755 5754 5754 5753 5753 5752 5752 5751 5750 5750 5748 5748 5746 5744 5742 5741 5740 5739 5738 5737 5736 5735 5734 5733 5732 5731 5731 5730 5729 5728 5727 5726 5726 5725 5724 5723 5722
5762 5761 5759 5757 5756 5755 5754 5753 5752 5751 5751 5750 5750 5749 5749 5748 5746 5745 5745 5743 5740 5739 5738 5737 5736 5736 5735 5734 5733 5732 5731 5730 5730 5729 5728 5727 5726 5726 5725 5724 5723 5722 5720
5760 5759 5758 5757 5756 5754 5752 5751 5751 5750 5749 5749 5748 5748 5747 5746 5745 5744 5743 5742 5740 5737 5736 5735 5735 5734 5734 5733 5732 5731 5731 5730 5729 5728 5727 5726 5726 5725 5724 5723 5722 5721 5719
5759 5758 5758 5757 5754 5754 5752 5750 5749 5748 5747 5747 5746 5746 5746 5744 5743 5742 5742 5741 5740 5739 5736 5733 5733 5733 5733 5732 5731 5731 5730 5729 5728 5727 5727 5726 5725 5724 5723 5722 5721 5719 5718
5756 5756 5755 5753 5752 5751 5751 5750 5748 5746 5745 5744 5745 5744 5744 5742 5741 5741 5740 5739 5738 5737 5737 5733 5732 5731 5731 5730 5730 5730 5729 5728 5728 5727 5726 5725 5724 5723 5722 5720 5719 5718 5717
5754 5753 5752 5751 5751 5750 5748 5746 5743 5742 5742 5742 5744 5743 5741 5741 5740 5740 5739 5738 5737 5736 5736 5735 5733 5731 5729 5729 5728 5728 5728 5727 5726 5726 5725 5725 5724 5722 5721 5720 5718 5717 5715
5751 5750 5751 5749 5748 5748 5746 5745 5743 5740 5740 5741 5739 5738 5739 5740 5739 5738 5738 5738 5737 5735 5734 5733 5733 5732 5730 5727 5726 5726 5726 5725 5725 5724 5724 5723 5723 5722 5720 5719 5718 5716 5714
5749 5750 5748 5748 5746 5745 5743 5742 5740 5739 5740 5740 5737 5735 5733 5733 5734 5738 5736 5735 5735 5735 5734 5733 5731 5730 5729 5728 5726 5725 5724 5724 5723 5723 5722 5722 5721 5720 5720 5719 5717 5716 5714
5747 5746 5746 5745 5744 5744 5742 5740 5739 5736 5736 5737 5738 5735 5731 5728 5731 5734 5733 5734 5732 5732 5732 5731 5730 5728 5727 5727 5726 5723 5722 5722 5721 5721 5720 5720 5719 5719 5719 5718 5717 5715 5714
5744 5743 5742 5742 5742 5742 5739 5739 5739 5737 5735 5734 5735 5734 5733 5732 5728 5728 5730 5732 5731 5729 5730 5730 5730 5728 5726 5725 5723 5722 5720 5720 5719 5719 5718 5718 5717 5717 5717 5717 5716 5714 5713
5742 5740 5739 5739 5738 5738 5737 5736 5736 5735 5735 5733 5732 5732 5730 5729 5729 5726 5723 5726 5728 5729 5729 5728 5728 5727 5725 5724 5722 5720 5718 5717 5717 5716 5716 5715 5715 5714 5714 5714 5713 5711 5710
5740 5738 5737 5736 5736 5735 5734 5733 5733 5732 5732 5731 5730 5730 5728 5727 5725 5725 5722 5721 5722 5725 5726 5726 5726 5725 5724 5722 5720 5718 5716 5715 5714 5713 5713 5713 5712 5711 5710 5710 5709 5707 5706
5738 5735 5735 5733 5733 5733 5732 5731 5730 5730 5729 5727 5727 5727 5727 5727 5726 5724 5722 5721 5720 5723 5722 5724 5724 5723 5722 5719 5717 5714 5712 5711 5710 5710 5711 5711 5709 5708 5706 5706 5705 5704 5703
5736 5733 5732 5731 5730 5730 5730 5729 5729 5728 5727 5725 5725 5724 5724 5724 5724 5723 5720 5718 5716 5718 5718 5717 5721 5719 5717 5715 5713 5710 5711 5708 5707 5706 5707 5706 5704 5703 5701 5701 5701 5701 5700
5733 5730 5729 5728 5727 5727 5726 5726 5726 5724 5723 5722 5723 5722 5722 5722 5722 5721 5720 5719 5714 5711 5712 5713 5713 5714 5713 5711 5708 5707 5707 5704 5702 5700 5699 5698 5697 5696 5696 5696 5696 5696 5695
5728 5726 5725 5724 5723 5723 5723 5722 5722 5720 5719 5718 5718 5717 5717 5719 5718 5717 5717 5717 5715 5712 5709 5711 5709 5710 5707 5707 5703 5703 5702 5699 5697 5695 5694 5693 5692 5691 5691 5690 5690 5690 5689
5722 5721 5720 5720 5719 5719 5718 5717 5717 5715 5715 5714 5714 5713 5712 5712 5713 5713 5713 5712 5711 5709 5704 5706 5707 5705 5702 5701 5700 5699 5699 5697 5695 5691 5689 5688 5687 5686 5685 5684 5684 5683 5683
5717 5717 5716 5715 5715 5714 5713 5711 5710 5710 5710 5709 5708 5707 5707 5707 5705 5707 5706 5706 5705 5703 5702 5698 5700 5700 5697 5697 5695 5694 5695 5695 5692 5688 5685 5683 5681 5680 5679 5678 5677 5677 5676
5711 5711 5711 5709 5708 5707 5706 5706 5706 5705 5705 5704 5703 5702 5701 5700 5698 5699 5698 5699 5699 5699 5697 5696 5695 5695 5694 5694 5691 5690 5690 5688 5688 5685 5681 5679 5677 5675 5674 5673 5672 5671 5670
5704 5704 5704 5702 5701 5701 5701 5701 5700 5700 5700 5699 5698 5697 5696 5694 5692 5692 5691 5691 5691 5691 5691 5691 5690 5690 5689 5688 5686 5685 5683 5682 5682 5681 5678 5675 5672 5670 5669 5667 5666 5665 5664
5698 5697 5697 5696 5695 5695 5696 5695 5693 5694 5693 5692 5691 5691 5690 5688 5686 5685 5686 5685 5684 5684 5685 5685 5685 5684 5683 5681 5680 5681 5679 5677 5675 5675 5673 5671 5669 5668 5665 5662 5660 5659 5658
5691 5690 5689 5689 5688 5690 5686 5684 5684 5686 5685 5685 5684 5684 5684 5682 5679 5676 5676 5675 5674 5676 5677 5677 5679 5677 5675 5676 5674 5674 5672 5671 5668 5669 5667 5665 5665 5663 5661 5659 5655 5653 5651
5685 5683 5683 5682 5681 5678 5675 5674 5674 5677 5678 5678 5677 5677 5680 5679 5675 5674 5671 5668 5668 5667 5666 5669 5670 5670 5670 5669 5667 5667 5665 5664 5663 5663 5661 5659 5659 5657 5655 5653 5649 5646 5644
5677 5676 5676 5675 5673 5671 5667 5666 5666 5670 5672 5672 5671 5671 5671 5670 5670 5667 5667 5667 5666 5665 5663 5663 5664 5665 5666 5663 5662 5661 5660 5659 5658 5657 5656 5653 5654 5651 5650 5646 5643 5640 5637
5670 5669 5668 5668 5666 5664 5661 5659 5659 5664 5665 5665 5665 5665 5664 5663 5659 5656 5658 5659 5659 5658 5657 5656 5656 5656 5655 5654 5653 5655 5654 5654 5652 5652 5651 5648 5647 5646 5644 5641 5638 5635 5632
5663 5663 5662 5661 5660 5658 5654 5653 5652 5659 5659 5660 5659 5658 5655 5654 5651 5649 5651 5652 5651 5652 5653 5652 5650 5649 5650 5649 5647 5647 5649 5648 5647 5645 5645 5641 5640 5639 5636 5636 5634 5631 5627